Location: Beetenbrück
(52.8113°N, 9.5946°E)
Time: 17:07:44
(UTC+00:00)

Cosmos 1300 Rocket - Pass Details

Date: 14 April 2026
Orbit: 596 x 618 km, 82.5° (Epoch: 9 May)

Event Time Altitude Azimuth Distance (km) Brightness Sun altitude
Exits shadow 21:19:27 65° 93° (E) 660 3.4 -22.3°
Drops below altitude 10° 21:23:40 10° 16° (NNE) 1,948 6.6 -22.6°
Sets 21:25:54 0° 14° (NNE) 2,857 7.6 -22.8°
